EW8576 Weather Reports


Display with metric or nautical units.
time (UTC)temp
F
wind
direction
speed
MPH
gust
MPH
rain 1hr
in
rain 24hr
in
rain mn
in
humidity
%
barometer
mb
20260509221442 56 273 0.0 0.0 0.00 0.00 0.00 1 1007.1
20260509220940 56 273 0.0 0.0 0.00 0.00 0.00 1 1007.1
20260509220441 56 273 0.0 0.0 0.00 0.00 0.00 1 1007.1
20260509215941 56 273 0.0 0.0 0.00 0.00 0.00 1 1007.3
20260509215439 56 273 0.0 0.0 0.00 0.00 0.00 1 1007.4
20260509215202 55 273 0.0 0.0 0.00 0.00 0.00 1 1007.6
20260509214437 55 273 0.0 0.0 0.00 0.00 0.00 1 1007.6
20260509213936 55 273 0.0 0.0 0.00 0.00 0.00 1 1007.6
20260509213432 55 273 0.0 0.0 0.00 0.00 0.00 1 1007.6
20260509212932 55 273 0.0 0.0 0.00 0.00 0.00 1 1007.6
20260509212430 55 273 0.0 0.0 0.00 0.00 0.00 1 1007.7
20260509211931 55 233 0.0 0.0 0.00 0.00 0.00 1 1007.6
20260509211429 55 234 0.0 5.0 0.00 0.00 0.00 1 1007.8
20260509210928 55 231 1.0 8.0 0.00 0.00 0.00 1 1007.7
20260509210422 55 231 0.0 8.0 0.00 0.00 0.00 1 1007.8
20260509205915 55 220 0.0 5.0 0.00 0.00 0.00 1 1007.8
20260509205628 55 0 0.0 2.0 0.00 0.00 0.00 1 1007.8
20260509204903 54 219 0.0 4.0 0.00 0.00 0.00 1 1007.8
20260509204358 54 219 0.0 4.0 0.00 0.00 0.00 1 1007.9
20260509203852 54 219 0.0 4.0 0.00 0.00 0.00 1 1008.0
20260509203346 54 220 0.0 1.0 0.00 0.00 0.00 1 1008.2
20260509202840 54 219 0.0 1.0 0.00 0.00 0.00 1 1008.3
20260509202334 54 220 0.0 1.0 0.00 0.00 0.00 1 1008.4
20260509202051 54 220 0.0 5.0 0.00 0.00 0.00 1 1008.5
20260509201322 55 220 0.0 5.0 0.00 0.00 0.00 1 1008.5
20260509200816 55 219 0.0 2.0 0.00 0.00 0.00 1 1008.5
20260509200309 55 219 0.0 0.0 0.00 0.00 0.00 1 1008.6
20260509200031 55 219 0.0 4.0 0.00 0.00 0.00 1 1008.6
20260509195258 55 219 0.0 4.0 0.00 0.00 0.00 1 1008.7
20260509194752 55 215 0.0 0.0 0.00 0.00 0.00 1 1008.7
20260509194247 55 215 0.0 0.0 0.00 0.00 0.00 1 1008.8
20260509193740 55 215 0.0 0.0 0.00 0.00 0.00 1 1008.9
20260509193233 55 212 0.0 0.0 0.00 0.00 0.00 1 1008.9
20260509192951 55 211 0.0 0.0 0.00 0.00 0.00 1 1009.0
20260509192222 55 211 0.0 0.0 0.00 0.00 0.00 1 1009.0
20260509191716 54 211 0.0 2.0 0.00 0.00 0.00 1 1009.0
20260509191655 54 211 0.0 2.0 0.00 0.00 0.00 1 1009.1
20260509190704 54 254 0.0 0.0 0.00 0.00 0.00 1 1009.2
20260509190202 54 254 0.0 0.0 0.00 0.00 0.00 1 1009.3
20260509185648 54 254 0.0 0.0 0.00 0.00 0.00 1 1009.5
20260509185142 54 254 0.0 0.0 0.00 0.00 0.00 1 1009.6
20260509184636 54 254 0.0 0.0 0.00 0.00 0.00 1 1009.6
20260509184130 54 254 0.0 0.0 0.00 0.00 0.00 1 1009.5
20260509183844 54 254 0.0 0.0 0.00 0.00 0.00 1 1009.6
20260509183118 54 254 0.0 0.0 0.00 0.00 0.00 1 1009.5
20260509182612 54 254 0.0 0.0 0.00 0.00 0.00 1 1009.4
20260509182106 54 254 0.0 7.0 0.00 0.00 0.00 1 1009.4
20260509181559 53 247 0.0 7.0 0.00 0.00 0.00 1 1009.4
20260509181317 54 254 0.0 0.0 0.00 0.00 0.00 1 1009.4
20260509180548 54 0 0.0 0.0 0.00 0.00 0.00 1 1009.4
20260509180042 54 284 0.0 6.0 0.00 0.00 0.00 1 1009.2
20260509175756 54 288 0.0 6.0 0.00 0.00 0.00 1 1009.4
20260509175030 54 60 0.0 0.0 0.00 0.00 0.00 1 1009.4
20260509174526 54 59 0.0 0.0 0.00 0.00 0.00 1 1009.3
20260509174018 54 60 0.0 0.0 0.00 0.00 0.00 1 1009.2
20260509173512 54 63 0.0 0.0 0.00 0.00 0.00 1 1009.2
20260509173006 53 66 0.0 0.0 0.00 0.00 0.00 1 1009.2
20260509172500 53 63 0.0 0.0 0.00 0.00 0.00 1 1009.1
20260509172211 53 64 0.0 0.0 0.00 0.00 0.00 1 1009.0
20260509171447 53 63 0.0 0.0 0.00 0.00 0.00 1 1009.1
20260509170942 53 65 0.0 0.0 0.00 0.00 0.00 1 1009.0
20260509170700 53 0 0.0 0.0 0.00 0.00 0.00 1 1009.1
20260509165929 53 62 0.0 0.0 0.00 0.00 0.00 1 1009.3
20260509165424 53 62 0.0 0.0 0.00 0.00 0.00 1 1009.3
20260509164919 52 61 0.0 0.0 0.00 0.00 0.00 1 1009.4
20260509164412 52 62 0.0 0.0 0.00 0.00 0.00 1 1009.5
20260509163906 53 62 0.0 0.0 0.00 0.00 0.00 1 1009.5
20260509163626 52 62 0.0 0.0 0.00 0.00 0.00 1 1009.5
20260509162854 52 62 0.0 0.0 0.00 0.00 0.00 1 1009.7
20260509162348 52 62 0.0 0.0 0.00 0.00 0.00 1 1009.8
20260509161842 52 62 0.0 0.0 0.00 0.00 0.00 1 1009.9
20260509161336 52 62 0.0 0.0 0.00 0.00 0.00 1 1009.9
20260509160830 52 62 0.0 0.0 0.00 0.00 0.00 1 1010.1
20260509160820 51 62 0.0 0.0 0.00 0.00 0.00 1 1010.2
20260509155818 51 62 0.0 0.0 0.00 0.00 0.00 1 1010.1
20260509155312 51 62 0.0 0.0 0.00 0.00 0.00 1 1010.3
20260509154806 51 65 0.0 0.0 0.00 0.00 0.00 1 1010.5
20260509154300 51 0 0.0 0.0 0.00 0.00 0.00 1 1010.6
20260509153755 51 65 0.0 0.0 0.00 0.00 0.00 1 1010.5
20260509153248 51 65 0.0 0.0 0.00 0.00 0.00 1 1010.5
20260509152742 51 62 0.0 0.0 0.00 0.00 0.00 1 1010.3
20260509152457 51 64 0.0 0.0 0.00 0.00 0.00 1 1010.4
20260509151730 51 0 0.0 0.0 0.00 0.00 0.00 1 1010.3
20260509151230 51 0 0.0 0.0 0.00 0.00 0.00 1 1010.3
20260509150704 51 0 0.0 0.0 0.00 0.00 0.00 1 1010.3
20260509145728 51 0 0.0 0.0 0.00 0.00 0.00 1 1010.4
20260509145445 51 62 0.0 0.0 0.00 0.00 0.00 1 1010.3
20260509144724 51 0 0.0 0.0 0.00 0.00 0.00 1 1010.3
20260509144222 51 65 0.0 0.0 0.00 0.00 0.00 1 1010.3
20260509143723 50 0 0.0 0.0 0.00 0.00 0.00 1 1010.4
20260509143222 50 62 0.0 0.0 0.00 0.00 0.00 1 1010.5
20260509142720 50 62 0.0 0.0 0.00 0.00 0.00 1 1010.5
20260509142218 50 62 0.0 0.0 0.00 0.00 0.00 1 1010.5
20260509141716 50 62 0.0 0.0 0.00 0.00 0.00 1 1010.4
20260509141216 50 62 0.0 0.0 0.00 0.00 0.00 1 1010.4
20260509140717 49 62 0.0 0.0 0.00 0.00 0.00 1 1010.4
20260509140215 49 62 0.0 0.0 0.00 0.00 0.00 1 1010.5
20260509135716 49 62 0.0 0.0 0.00 0.00 0.00 1 1010.6
20260509135216 48 62 0.0 0.0 0.00 0.00 0.00 1 1010.7
20260509134716 48 62 0.0 0.0 0.00 0.00 0.00 1 1010.7
20260509134212 48 62 0.0 0.0 0.00 0.00 0.00 1 1010.7
20260509133712 48 62 0.0 0.0 0.00 0.00 0.00 1 1010.6
20260509133434 48 62 0.0 0.0 0.00 0.00 0.00 1 1010.6
20260509132712 47 62 0.0 0.0 0.00 0.00 0.00 1 1010.7
20260509132212 47 62 0.0 0.0 0.00 0.00 0.00 1 1010.8
20260509131710 47 62 0.0 0.0 0.00 0.00 0.00 1 1010.8
20260509131209 47 62 0.0 0.0 0.00 0.00 0.00 1 1010.7
20260509130935 47 62 0.0 0.0 0.00 0.00 0.00 1 1010.6
20260509130209 47 62 0.0 0.0 0.00 0.00 0.00 1 1010.6
20260509125707 47 62 0.0 0.0 0.00 0.00 0.00 1 1010.4
20260509125208 46 62 0.0 0.0 0.00 0.00 0.00 1 1010.4
20260509124708 46 62 0.0 0.0 0.00 0.00 0.00 1 1010.3
20260509124206 46 62 0.0 0.0 0.00 0.00 0.00 1 1010.3
20260509123704 46 61 0.0 0.0 0.00 0.00 0.00 1 1010.4
20260509123204 46 61 0.0 0.0 0.00 0.00 0.00 1 1010.4
20260509122704 46 61 0.0 0.0 0.00 0.00 0.00 1 1010.6
20260509122203 46 61 0.0 0.0 0.00 0.00 0.00 1 1010.7
20260509121703 46 60 0.0 0.0 0.00 0.00 0.00 1 1010.8
20260509121204 46 60 0.0 0.0 0.00 0.00 0.00 1 1010.9
20260509120704 46 60 0.0 0.0 0.00 0.00 0.00 1 1010.9
20260509120204 46 63 0.0 0.0 0.00 0.00 0.00 1 1010.9
20260509115922 46 63 0.0 0.0 0.00 0.00 0.00 1 1010.9
20260509115200 46 63 0.0 0.0 0.00 0.00 0.00 1 1010.9
20260509114700 46 63 0.0 0.0 0.00 0.00 0.00 1 1011.0
20260509114201 46 63 0.0 0.0 0.00 0.00 0.00 1 1011.0
20260509113928 46 63 0.0 0.0 0.00 0.00 0.00 1 1011.0
20260509113424 45 63 0.0 0.0 0.00 0.00 0.00 1 1011.0
20260509112659 45 63 0.0 0.0 0.00 0.00 0.00 1 1011.0
20260509112200 45 63 0.0 0.0 0.00 0.00 0.00 1 1011.1
20260509111917 45 63 0.0 2.0 0.00 0.00 0.00 1 1011.1
20260509111421 45 63 0.0 4.0 0.00 0.00 0.00 1 1011.2
20260509110655 45 63 0.0 4.0 0.00 0.00 0.00 1 1011.1
20260509110155 45 63 0.0 4.0 0.00 0.00 0.00 1 1010.9
20260509105654 45 63 0.0 4.0 0.00 0.00 0.00 1 1010.8
20260509105154 45 63 0.0 2.0 0.00 0.00 0.00 1 1010.7
20260509104654 45 63 0.0 1.0 0.00 0.00 0.00 1 1010.8
20260509104151 45 63 0.0 1.0 0.00 0.00 0.00 1 1010.8
20260509103651 45 63 0.0 0.0 0.00 0.00 0.00 1 1010.7
20260509103149 45 63 0.0 0.0 0.00 0.00 0.00 1 1010.7
20260509102907 45 63 0.0 1.0 0.00 0.00 0.00 1 1010.6
20260509102146 45 63 0.0 4.0 0.00 0.00 0.00 1 1010.5
20260509101645 45 63 0.0 4.0 0.00 0.00 0.00 1 1010.6
20260509101143 45 61 0.0 0.0 0.00 0.00 0.00 1 1010.6
20260509100643 45 59 0.0 0.0 0.00 0.00 0.00 1 1010.8
20260509100142 45 57 0.0 0.0 0.00 0.00 0.00 1 1010.8
20260509095903 45 57 0.0 0.0 0.00 0.00 0.00 1 1010.8
20260509095131 45 58 0.0 0.0 0.00 0.00 0.00 1 1010.8
20260509094842 45 58 0.0 0.0 0.00 0.00 0.00 1 1010.7
20260509094119 45 58 0.0 0.0 0.00 0.00 0.00 1 1010.8
20260509093831 45 58 0.0 0.0 0.00 0.00 0.00 1 1010.9
20260509093325 45 58 0.0 1.0 0.00 0.00 0.00 1 1010.9
20260509092601 45 58 0.0 1.0 0.00 0.00 0.00 1 1010.8
20260509092055 45 58 0.0 0.0 0.00 0.00 0.00 1 1010.9
20260509091548 45 58 0.0 0.0 0.00 0.00 0.00 1 1010.9
20260509091043 45 58 0.0 0.0 0.00 0.00 0.00 1 1010.9
20260509090753 45 58 0.0 0.0 0.00 0.00 0.00 1 1011.0
20260509090030 45 58 0.0 0.0 0.00 0.00 0.00 1 1011.0
20260509085525 45 58 0.0 0.0 0.00 0.00 0.00 1 1011.2
20260509085019 46 58 0.0 0.0 0.00 0.00 0.00 1 1011.3
20260509084513 46 58 0.0 0.0 0.00 0.00 0.00 1 1011.4
20260509084230 46 58 0.0 0.0 0.00 0.00 0.00 1 1011.4
20260509083719 46 58 0.0 0.0 0.00 0.00 0.00 1 1011.2
20260509082954 46 58 0.0 0.0 0.00 0.00 0.00 1 1011.2
20260509082448 46 58 0.0 0.0 0.00 0.00 0.00 1 1011.2
20260509081943 46 58 0.0 0.0 0.00 0.00 0.00 1 1011.1
20260509081437 46 58 0.0 0.0 0.00 0.00 0.00 1 1011.0
20260509080931 46 58 0.0 0.0 0.00 0.00 0.00 1 1010.8
20260509080425 46 58 0.0 0.0 0.00 0.00 0.00 1 1010.7
20260509075919 46 58 0.0 0.0 0.00 0.00 0.00 1 1010.8
20260509075412 46 58 0.0 0.0 0.00 0.00 0.00 1 1010.9
20260509074907 46 58 0.0 0.0 0.00 0.00 0.00 1 1010.8
20260509074401 46 58 0.0 0.0 0.00 0.00 0.00 1 1010.9
20260509073854 46 58 0.0 2.0 0.00 0.00 0.00 1 1010.9
20260509073832 46 58 0.0 2.0 0.00 0.00 0.00 1 1010.9
20260509072840 45 58 0.0 0.0 0.00 0.00 0.00 1 1010.8
20260509072553 45 58 0.0 0.0 0.00 0.00 0.00 1 1010.8
20260509071829 45 58 0.0 0.0 0.00 0.00 0.00 1 1010.7
20260509071322 46 58 0.0 0.0 0.00 0.00 0.00 1 1010.8
20260509070817 47 58 0.0 0.0 0.00 0.00 0.00 1 1010.8
20260509070311 48 58 0.0 0.0 0.00 0.00 0.00 1 1010.9
20260509065805 48 58 0.0 0.0 0.00 0.00 0.00 1 1010.8
20260509065258 48 58 0.0 1.0 0.00 0.00 0.00 1 1010.8
20260509064753 48 58 0.0 1.0 0.00 0.00 0.00 14 1010.7
20260509064247 48 58 0.0 1.0 0.00 0.00 0.00 22 1010.6
20260509063742 48 58 0.0 0.0 0.00 0.00 0.00 26 1010.5
20260509063457 48 57 0.0 0.0 0.00 0.00 0.00 23 1010.6
20260509062729 48 57 0.0 0.0 0.00 0.00 0.00 18 1010.6
20260509062223 48 58 0.0 0.0 0.00 0.00 0.00 17 1010.7
20260509061717 48 57 0.0 4.0 0.00 0.00 0.00 17 1010.8
20260509061210 48 57 0.0 4.0 0.00 0.00 0.00 13 1010.7
20260509060705 48 69 0.0 0.0 0.00 0.00 0.00 14 1010.7
20260509060159 48 74 0.0 0.0 0.00 0.00 0.00 13 1010.6
20260509055853 47 0 0.0 4.0 0.00 0.00 0.00 6 1010.8
20260509055736 47 75 0.0 4.0 0.00 0.00 0.00 10 1010.7
20260509054903 47 304 0.0 0.0 0.00 0.00 0.00 1 1010.8
20260509054136 47 300 0.0 0.0 0.00 0.00 0.00 1 1010.9
20260509053629 47 300 0.0 0.0 0.00 0.00 0.00 1 1010.9
20260509053124 46 300 0.0 1.0 0.00 0.00 0.00 1 1010.9
20260509052617 46 300 0.0 1.0 0.00 0.00 0.00 1 1011.1
20260509052111 46 300 0.0 0.0 0.00 0.00 0.00 1 1011.1
20260509051605 46 300 0.0 0.0 0.00 0.00 0.00 1 1011.1
20260509051315 46 300 0.0 0.0 0.00 0.00 0.00 1 1011.0
20260509050552 46 300 0.0 0.0 0.00 0.00 0.00 1 1011.0
20260509050047 46 300 0.0 0.0 0.00 0.00 0.00 1 1011.0
20260509045541 46 300 0.0 0.0 0.00 0.00 0.00 1 1011.0
20260509045035 46 300 0.0 0.0 0.00 0.00 0.00 1 1011.1
20260509044529 46 300 0.0 0.0 0.00 0.00 0.00 1 1011.2
20260509044023 46 300 0.0 0.0 0.00 0.00 0.00 1 1011.2
20260509043958 46 300 0.0 0.0 0.00 0.00 0.00 1 1011.2
20260509043012 46 300 0.0 0.0 0.00 0.00 0.00 1 1011.2
20260509042504 46 300 0.0 0.0 0.00 0.00 0.00 1 1011.1
20260509041959 46 300 0.0 0.0 0.00 0.00 0.00 1 1011.2
20260509041453 46 300 0.0 0.0 0.00 0.00 0.00 1 1011.2
20260509040950 46 300 0.0 0.0 0.00 0.00 0.00 1 1011.2
20260509040450 46 300 0.0 0.0 0.00 0.00 0.00 1 1011.1
20260509035948 46 300 0.0 0.0 0.00 0.00 0.00 1 1011.0
20260509035446 46 300 0.0 0.0 0.00 0.00 0.00 1 1011.1
20260509034946 45 300 0.0 0.0 0.00 0.00 0.00 1 1011.0
20260509034446 45 300 0.0 0.0 0.00 0.00 0.00 1 1011.0
20260509033943 45 300 0.0 0.0 0.00 0.00 0.00 1 1011.0
20260509033441 45 300 0.0 0.0 0.00 0.00 0.00 1 1011.0
20260509032940 44 300 0.0 0.0 0.00 0.00 0.00 1 1011.0
20260509032440 44 300 0.0 0.0 0.00 0.00 0.00 1 1010.9
20260509031939 44 300 0.0 0.0 0.00 0.00 0.00 1 1010.9
20260509031437 44 300 0.0 0.0 0.00 0.00 0.00 1 1010.9
20260509030935 44 300 0.0 0.0 0.00 0.00 0.00 1 1010.9
20260509030436 44 300 0.0 0.0 0.00 0.00 0.00 1 1010.9
20260509025934 45 300 0.0 0.0 0.00 0.00 0.00 1 1010.9
20260509025657 45 300 0.0 0.0 0.00 0.00 0.00 1 1010.8
20260509024933 45 300 0.0 0.0 0.00 0.00 0.00 1 1010.8
20260509024655 45 300 0.0 0.0 0.00 0.00 0.00 1 1010.8
20260509024419 45 300 0.0 0.0 0.00 0.00 0.00 1 1010.8
20260509023426 45 300 0.0 0.0 0.00 0.00 0.00 1 1010.8
20260509023401 45 300 0.0 0.0 0.00 0.00 0.00 1 1010.8
20260509022640 45 300 0.0 0.0 0.00 0.00 0.00 1 1010.8
20260509021922 46 300 0.0 0.0 0.00 0.00 0.00 1 1010.9
20260509021420 46 300 0.0 0.0 0.00 0.00 0.00 1 1011.0
20260509020918 46 300 0.0 0.0 0.00 0.00 0.00 1 1011.0
20260509020417 46 300 0.0 0.0 0.00 0.00 0.00 1 1010.9
20260509015917 46 300 0.0 0.0 0.00 0.00 0.00 1 1010.9
20260509015418 46 300 0.0 0.0 0.00 0.00 0.00 1 1010.7
20260509014918 46 300 0.0 0.0 0.00 0.00 0.00 1 1010.6
20260509014418 46 300 0.0 0.0 0.00 0.00 0.00 9 1010.6
20260509013914 47 300 0.0 0.0 0.00 0.00 0.00 9 1010.6
20260509013413 47 300 0.0 0.0 0.00 0.00 0.00 6 1010.5
20260509013407 47 300 0.0 0.0 0.00 0.00 0.00 12 1010.4
20260509012414 47 300 0.0 0.0 0.00 0.00 0.00 19 1010.3
20260509011913 47 300 0.0 0.0 0.00 0.00 0.00 31 1010.3
20260509011414 48 300 0.0 0.0 0.00 0.00 0.00 28 1010.1
20260509011132 48 300 0.0 0.0 0.00 0.00 0.00 29 1010.2
20260509010414 49 300 0.0 0.0 0.00 0.00 0.00 26 1010.1
20260509010139 49 300 0.0 0.0 0.00 0.00 0.00 24 1009.9
20260509005410 50 300 0.0 0.0 0.00 0.00 0.00 22 1009.8
20260509005132 50 300 0.0 0.0 0.00 0.00 0.00 32 1009.7
20260509004632 50 300 0.0 0.0 0.00 0.00 0.00 37 1009.6
20260509003910 51 300 0.0 0.0 0.00 0.00 0.00 45 1009.5
20260509003409 51 300 0.0 0.0 0.00 0.00 0.00 48 1009.4
20260509002910 52 300 0.0 0.0 0.00 0.00 0.00 51 1009.4
20260509002409 53 300 0.0 0.0 0.00 0.00 0.00 51 1009.3
20260509001907 54 300 0.0 0.0 0.00 0.00 0.00 49 1009.3
20260509001405 54 300 0.0 0.0 0.00 0.00 0.00 51 1009.2
20260509000904 55 0 0.0 0.0 0.00 0.00 0.00 47 1009.3
20260509000358 56 300 0.0 0.0 0.00 0.00 0.00 48 1009.3
20260508235854 56 300 0.0 0.0 0.00 0.00 0.00 50 1009.4
20260508235353 57 300 0.0 0.0 0.00 0.00 0.00 49 1009.2
20260508234851 58 279 0.0 0.0 0.00 0.00 0.00 43 1009.2
20260508234351 58 279 0.0 0.0 0.00 0.00 0.00 41 1009.0
20260508233850 58 279 0.0 0.0 0.00 0.00 0.00 41 1009.0
20260508233347 59 279 0.0 0.0 0.00 0.00 0.00 39 1008.9
20260508232847 59 279 0.0 0.0 0.00 0.00 0.00 37 1008.9
20260508232609 60 279 0.0 0.0 0.00 0.00 0.00 36 1008.8
20260508232047 60 280 0.0 0.0 0.00 0.00 0.00 36 1008.7
20260508231929 60 279 0.0 0.0 0.00 0.00 0.00 37 1008.8
20260508230845 59 280 0.0 0.0 0.00 0.00 0.00 36 1008.7
20260508230343 59 279 0.0 0.0 0.00 0.00 0.00 37 1008.6
20260508225841 60 279 0.0 4.0 0.00 0.00 0.00 35 1008.6
20260508225338 60 309 0.0 5.0 0.00 0.00 0.00 36 1008.6
20260508225108 60 312 0.0 5.0 0.00 0.00 0.00 35 1008.5
20260508224337 61 241 0.0 4.0 0.00 0.00 0.00 35 1008.5
20260508223837 60 278 0.0 2.0 0.00 0.00 0.00 35 1008.5
20260508223336 60 273 0.0 4.0 0.00 0.00 0.00 35 1008.4
20260508222833 61 313 0.0 4.0 0.00 0.00 0.00 36 1008.5
20260508222334 61 326 0.0 2.0 0.00 0.00 0.00 35 1008.5
20260508221833 61 306 0.0 2.0 0.00 0.00 0.00 35 1008.5